Regional Weather Roundup
Issued by NWS Cleveland, OH

Home | Current Version | Previous Version | Text Only | Print | Product List | Glossary Off
Versions: 1 2 3 4 5 6 7 8 9 10 11 12 13 14 15 16 17 18 19 20 21 22 23 24 25 26 27 28 29 30 31 32 33 34 35 36 37 38 39 40 41 42 43 44 45 46 47 48 49 50

000
ASUS41 KCLE 281802
RWRCLE
OHIO REGIONAL WEATHER ROUNDUP
NATIONAL WEATHER SERVICE CLEVELAND, OH
200 PM EDT MON JUL 28 2014

NOTE: "FAIR" INDICATES FEW OR NO CLOUDS BELOW 12,000 FEET WITH NO
SIGNIFICANT WEATHER AND/OR OBSTRUCTIONS TO VISIBILITY.

OHZ001>008-015>018-024>027-034-035-043-044-281900-
   NORTHWEST OHIO

CITY           SKY/WX    TMP DP  RH WIND       PRES   REMARKS
DEFIANCE       MOSUNNY   74  52  46 NW13G22   29.94S
FINDLAY        PTSUNNY   73  53  49 N16G23    29.91S
TOLEDO EXPRESS PTSUNNY   73  50  44 N7G22     29.92S
TOLEDO EXEC    PTSUNNY   71  51  49 N15       29.93S
LIMA           PTSUNNY   72  56  57 NW12      29.93S
$$

OHZ009>014-019>023-028>033-038-089-281900-
   NORTHEAST OHIO

CITY           SKY/WX    TMP DP  RH WIND       PRES   REMARKS
CLE-HOPKINS    CLOUDY    66  56  70 NW18G35   29.89R
CLE-LAKEFRONT  CLOUDY    67  57  70 NW24G31   29.85R
CUY CO. ARPT   NOT AVBL
LORAIN-ELYRIA  PTSUNNY   70  56  61 N14G28    29.90R
ASHTABULA      CLOUDY    63  58  83 N9        29.82R
AKRON-CANTON   LGT RAIN  64  57  78 NW16G24   29.85R
WOOSTER        CLOUDY    67  55  65 N16       29.88R
MANSFIELD      CLOUDY    67  54  63 N21       29.91R
YOUNGSTOWN     LGT RAIN  64  60  87 NW15      29.80R
$$

OHZ042-051>053-060>062-070>072-077>081-281900-
  SOUTHWEST OHIO

CITY           SKY/WX    TMP DP  RH WIND       PRES   REMARKS
CINC-COVINGTON CLOUDY    70  59  68 W12       29.97S
CINC-LUNKEN    CLOUDY    71  60  68 W6        29.96S
HAMILTON       CLOUDY    71  61  70 NW7       29.97R
DAYTON         MOSUNNY   73  59  61 NW12      29.95S
WRIGHT-PAT AFB MOSUNNY   72  60  67 NW10      29.93F
DAYTON GENERAL CLOUDY    72  58  61 NW14      29.94S
WILMINGTON     PTSUNNY   69  57  65 NW10G18   29.94S
$$

OHZ036-037-039>041-045>050-054>059-063>069-073>076-082>088-281900-
  CENTRAL AND SOUTHEAST OHIO

CITY           SKY/WX    TMP DP  RH WIND       PRES   REMARKS
COLUMBUS       CLOUDY    75  59  57 NW14      29.89S
OSU AIRPORT    PTSUNNY   70  58  65 NW15G22   29.91R
BOLTON FIELD   CLOUDY    70  59  68 NW13G20   29.92R
RICKENBACK AFB CLOUDY    72  54  54 NW15      29.90R
NEWARK         LGT RAIN  67  59  75 N8G18     29.89R
MARION         PTSUNNY   71  55  56 N15       29.91S
LANCASTER      CLOUDY    70  58  65 NW15      29.90R
ZANESVILLE       N/A     70  60  70 NW13      29.87R
NEW PHILLY     CLOUDY    67  57  70 NW17G23   29.86R
$$



USA.gov is the U.S. government's official web portal to all federal, state and local government web resources and services.